TimeSAST,TemperatureF,Dew PointF,Humidity,Sea Level PressureIn,VisibilityMPH,Wind Direction,Wind SpeedMPH,Gust SpeedMPH,PrecipitationIn,Events,Conditions,WindDirDegrees,DateUTC
12:00 AM,77.0,41.0,28,29.59,-9999.0,NW,13.8,-,N/A,,Clear,320,2013-04-16 22:00:00
1:00 AM,75.2,44.6,34,29.59,6.2,NNW,18.4,-,N/A,Rain,Light Rain,330,2013-04-16 23:00:00
2:00 AM,76,50,29,29.56,37,NNW,16.1,,,,,330,2013-04-17 00:00:00
2:00 AM,75.2,50.0,41,29.56,6.2,NNW,16.1,-,N/A,,Partly Cloudy,330,2013-04-17 00:00:00
3:00 AM,75.2,51.8,44,29.53,-9999.0,WNW,12.7,-,N/A,,Clear,300,2013-04-17 01:00:00
4:00 AM,75.2,53.6,47,29.53,-9999.0,NW,16.1,-,N/A,,Clear,310,2013-04-17 02:00:00
5:00 AM,74,53,36,29.54,19,West,16.1,,,,Partly Cloudy,270,2013-04-17 03:00:00
5:00 AM,73.4,53.6,50,29.53,6.2,West,17.3,-,N/A,,Scattered Clouds,270,2013-04-17 03:00:00
6:00 AM,66.2,53.6,64,29.56,6.2,SSE,3.5,-,N/A,,Scattered Clouds,160,2013-04-17 04:00:00
7:00 AM,62.6,55.4,77,29.56,6.2,East,3.5,-,N/A,,Partly Cloudy,80,2013-04-17 05:00:00
8:00 AM,65,55,63,29.58,12,NE,3.5,,,,Partly Cloudy,40,2013-04-17 06:00:00
8:00 AM,64.4,57.2,77,29.56,6.2,Variable,2.3,-,N/A,,Scattered Clouds,0,2013-04-17 06:00:00
9:00 AM,68.0,57.2,68,29.59,6.2,NNW,3.5,-,N/A,,Mostly Cloudy,340,2013-04-17 07:00:00
10:00 AM,71.6,55.4,57,29.59,6.2,WSW,4.6,-,N/A,,Mostly Cloudy,250,2013-04-17 08:00:00
11:00 AM,72,56,48,29.57,19,South,11.5,,,,Mostly Cloudy,190,2013-04-17 09:00:00
11:00 AM,71.6,57.2,60,29.59,6.2,South,10.4,-,N/A,,Mostly Cloudy,190,2013-04-17 09:00:00
12:00 PM,69.8,57.2,64,29.56,6.2,SSE,8.1,-,N/A,,Mostly Cloudy,160,2013-04-17 10:00:00
1:00 PM,73.4,57.2,57,29.56,6.2,Variable,2.3,-,N/A,,Mostly Cloudy,0,2013-04-17 11:00:00
2:00 PM,71,57,52,29.55,12,South,12.7,,,,Partly Cloudy,170,2013-04-17 12:00:00
2:00 PM,71.6,57.2,60,29.53,6.2,South,12.7,-,N/A,,Scattered Clouds,170,2013-04-17 12:00:00
3:00 PM,69.8,57.2,64,29.53,6.2,SE,8.1,-,N/A,,Scattered Clouds,130,2013-04-17 13:00:00
4:00 PM,71.6,57.2,60,29.56,6.2,ENE,3.5,-,N/A,,Partly Cloudy,60,2013-04-17 14:00:00
5:00 PM,63,55,68,29.61,12,South,12.7,,,,Mostly Cloudy,190,2013-04-17 15:00:00
5:00 PM,62.6,55.4,77,29.59,6.2,South,11.5,-,N/A,,Mostly Cloudy,190,2013-04-17 15:00:00
6:00 PM,60.8,59.0,94,29.65,6.2,WNW,5.8,-,N/A,Rain,Light Rain,290,2013-04-17 16:00:00
7:00 PM,60.8,57.2,88,29.65,6.2,Variable,2.3,-,N/A,,Mostly Cloudy,0,2013-04-17 17:00:00
8:00 PM,59,57,92,29.70,3,West,11.5,,,Rain-Thunderstorm,Thunderstorms and Rain,270,2013-04-17 18:00:00
8:00 PM,59.0,57.2,94,29.68,-9999.0,West,11.5,-,N/A,Rain-Thunderstorm,Thunderstorms and Rain,270,2013-04-17 18:00:00
9:00 PM,57.2,55.4,94,29.71,3.7,West,15.0,-,N/A,Rain,Rain,270,2013-04-17 19:00:00
11:00 PM,55.4,51.8,88,29.77,6.2,NW,11.5,-,N/A,Rain,Light Rain,310,2013-04-17 21:00:00